Weather in Riposto

Italy     37°42′17″N   15°11′59″E
temp.,
°C
wind,
m/s
gust,
m/s
humid.,
%
clouds,
%
prec.,
mm/h
press.,
hPa
HPBL,
m
9 may, sun
sun923:00+16nnw33680 0.0 101936
02:00+17nw33590 0.0 101923
05:00+16wnw22570 0.0 101816
08:00+19s23540 0.0 1019272
11:00+21sse56490 0.0 1020607
14:00+20sse68555 0.0 1020463
17:00+19s465583 0.0 1020325
20:00+16sw117046 0.0 102013
10 may, mon
mon1023:00+15wnw11645 0.0 102013
02:00+15wnw116017 0.0 101913
05:00+15nw115946 0.0 101812
08:00+18ese11544 0.0 1019139
11:00+19se33482 0.0 1019361
14:00+19se34593 0.0 1019353
17:00+19se226814 0.0 1018301
20:00+15w11840 0.0 101828
11 may, tue
tue1123:00+15nw22815 0.0 101831
02:00+15n118222 0.0 101639
05:00+15w01770 0.0 101527
08:00+17se22674 0.0 1015194
11:00+19se457038 0.0 1015351
14:00+19se45769 0.0 1015387
17:00+18e22762 0.0 1014285
20:00+16nne22845 0.0 101350
12 may, wed
wed1223:00+17nnw3477100 0.0 101359
02:00+16nw2273100 0.0 101245
05:00+15nw127217 0.0 101191
08:00+17nne46610 0.0 1012553
11:00+20ese23510 0.0 1012773
14:00+21ene33476 0.0 1012980
17:00+21ne55430 0.0 10121000
20:00+17nnw58480 0.0 1013211
13 may, thu
thu1323:00+14wnw34430 0.0 101472
02:00+14nw23490 0.0 101494
05:00+13wnw11530 0.0 101390
08:00+17ese11455 0.0 1013239
11:00+18se32460 0.0 1013538
14:00+20ese434144 0.0 1013650
17:00+19sse32495 0.0 1012207
20:00+17w11663 0.0 101323